Weather in Strahan

Australia     42°09′04″S   145°19′35″E
temp.,
°C
wind,
m/s
gust,
m/s
humid.,
%
clouds,
%
prec.,
mm/h
press.,
hPa
HPBL,
m
8 may, sat
sat801:00+14nnw71092100 1.6 1007668
04:00+14nw610863 3.3 1007434
07:00+14nw81184100 1.1 1007596
10:00+14wnw9118720 2.7 1008818
13:00+13w91177100 1.4 10081093
16:00+13wsw897016 1.8 10111165
19:00+12wsw67667 0.1 10131050
22:00+12w565835 0.2 10151289
9 may, sun
sun901:00+12nw5657100 0.1 10151483
04:00+12nw7965100 0.1 10141437
07:00+12nnw91274100 0.4 10131327
10:00+12nnw111476100 1.1 10131408
13:00+13nnw12167485 0.5 10101577
16:00+14nw131777100 0.7 10081565
19:00+14nnw131778100 0.2 10071384
22:00+14nnw142080100 0.6 10051510
10 may, mon
mon1001:00+14nnw152190100 2.9 10021444
04:00+14nnw152291100 8.9 9981610
07:00+14nw152094100 10.8 9981372
10:00+10ssw121480100 15.9 10051287
13:00+10ssw111267100 0.3 10081595
16:00+10sw111265100 0.5 10101659
19:00+9ssw111359100 0.3 10151993
22:00+9ssw101258100 0.4 10181798
11 may, tue
tue1101:00+10ssw9115798 0.1 10201706
04:00+9ssw7863100 0.3 10221320
07:00+10s465699 0.2 10251195
10:00+10se235658 0.3 1027739
13:00+11ssw3350100 0.1 10271370
16:00+10sw225288 0.1 1028923
19:00+10ssw115638 0.0 1030686
22:00+8ne32685 0.0 1031293
12 may, wed
wed1201:00+7nne347265 0.0 1031268
04:00+7nne45705 0.0 1030274
07:00+7nne46714 0.0 1030293
10:00+10n69664 0.0 1029629
13:00+12nnw79612 0.0 10261238
16:00+13nnw896195 0.0 10241270
19:00+11n7116879 0.0 1023850
22:00+11n8147647 0.0 1021803